Flag for U.S.A. Weather past 2 weeks in Evansville, Indiana, U.S.A.

Now
75 °F

Sunny.


Feels Like: 78 °F
Forecast: 58 / 76 °F
Wind: 10 mph from Northwest

Location: Evansville Regional Airport

Current Time: Sep 21, 2014 at 1:16:34 PM

Latest Report: Sep 21, 2014 at 11:54 AM


Visibility: 10 mi

Pressure: 29.97 "Hg

Humidity: 43%

Dew point: 51 °F

Location of EvansvilleLocation

Historic Weather in Evansville — Graph

°F

Evansville temperature yesterday

Maximum temperature yesterday: 85 °F (at 1:54 PM)
Minimum temperature yesterday: 58 °F (at 4:54 AM)
Average temperature yesterday: 71 °F

Past Weeks' High & Low Weather Summary

 TemperatureHumidityPressure
High85 °F (Sep 10, 3:54 PM)93% (Sep 9, 4:54 AM)30.35 "Hg (Sep 9, 4:54 AM)
Low46 °F (Sep 17, 6:54 AM)32% (Sep 8, 2:54 PM)29.74 "Hg (Sep 10, 5:54 PM)
Average66 °F72%30.08 "Hg
* Reported Sep 6 11:54 AM — Sep 21 11:54 AM, Evansville, Weather by CustomWeather, © 2014

Note: Actual official high and low records may vary slightly from our data, if they occured in-between our weather recording intervals... More about our weather records

Advertising

Evansville weather history for previous 24 hours

 ConditionsComfort  
Time TempWeatherWind HumidityBarometerVisibility
11:54 AM
Sep 21
75 °FSunny.10 mph43%29.97 "Hg10 mi
10:54 AM73 °FSunny.12 mph51%29.97 "Hg10 mi
9:54 AM74 °FScattered clouds.12 mph76%29.95 "Hg10 mi
9:03 AM73 °FBroken clouds.10 mph84%29.95 "Hg9 mi
7:54 AM71 °FMostly cloudy.6 mph90%29.92 "Hg8 mi
6:54 AM69 °FPartly sunny.6 mph93%29.91 "Hg10 mi
5:54 AM69 °FThundershowers. Passing clouds.5 mph93%29.90 "Hg10 mi
5:00 AM71 °FThunderstorms. Fog.7 mph87%29.90 "Hg2 mi
3:54 AM71 °FClear.7 mph84%29.89 "Hg10 mi
2:54 AM71 °FPassing clouds.8 mph84%29.88 "Hg10 mi
1:54 AM71 °FClear.9 mph84%29.90 "Hg10 mi
12:54 AM71 °FClear.7 mph84%29.92 "Hg10 mi
11:54 PM
Sep 20
73 °FClear.9 mph79%29.92 "Hg10 mi
10:54 PM73 °FClear.8 mph76%29.94 "Hg10 mi
9:54 PM74 °FClear.6 mph76%29.94 "Hg10 mi
8:54 PM73 °FClear.No wind79%29.96 "Hg10 mi
7:54 PM75 °FClear.3 mph71%29.95 "Hg10 mi
6:54 PM79 °FClear.8 mph65%29.93 "Hg10 mi
5:54 PM83 °FSunny.10 mph53%29.93 "Hg10 mi
4:54 PM84 °FSunny.15 mph51%29.93 "Hg10 mi
3:54 PM85 °FScattered clouds.15 mph50%29.95 "Hg10 mi
2:54 PM85 °FScattered clouds.16 mph50%29.96 "Hg10 mi
1:54 PM85 °FScattered clouds.15 mph50%30.00 "Hg10 mi
Weather by CustomWeather, © 2014

See weather overviewHow to use our weather pages